Simultaneous Nadir Overpasses (SNOs) Predictions

Prediction of SNOs between GOES-16 and TERRA Satellite Orbit:

Table of predicted SNOs for the next 14.0 days since TLE Epoch: 2/11/2023
Index Date Time (GOES-16) GOES-16 Lat,Lon TERRA Lat,Lon Distance(km) Time Diff (sec)
1 02/11/2023 03:29:14 -0.04, -75.19 -0.87, -79.22 458.05 80
2 02/13/2023 03:13:20 -0.03, -75.19 -0.07, -75.37 20.55 80
3 02/15/2023 02:54:46 -0.02, -75.20 0.77, -71.54 417.15 80
4 02/15/2023 15:17:43 0.03, -75.22 0.29, -76.46 141.13 80
5 02/17/2023 14:59:08 0.03, -75.23 -0.54, -72.62 297.30 80
6 02/18/2023 03:22:14 -0.03, -75.22 -0.51, -77.59 268.51 80
7 02/20/2023 03:03:38 -0.03, -75.24 0.31, -73.74 171.07 80
8 02/20/2023 15:23:55 0.03, -75.26 0.73, -78.66 386.85 80
9 02/22/2023 15:10:38 0.03, -75.29 -0.06, -74.81 54.38 80
10 02/24/2023 14:54:41 0.03, -75.32 -0.90, -70.96 496.54 80
